Back to catalog

ARIANE 42P DEB

AliveLEO
NORAD 44513·DEBRIS·🇫🇷 France

Launched Aug 10, 1992 from Guiana Space Centre

Loading…

Next Passes (next 24 hours)

TLE

AgingSource: Space-Track

Epoch: Sep 11, 2026, 01:14 UTC

1 44513U 92052L   26254.05207954 -.00000459  00000-0 -17355-2 0  9999
2 44513  66.0396 124.1885 0056712 257.7630 101.7030 12.80039190329716

Track ARIANE 42P DEB in real time with AllMySat

Download on the App Store